Overview Statistics Trail Chart Weather Telemetry Raw packets
 

This is the latest recevied weather packets stored in our database for station/object 4S6DRJ-13. If no packets are shown the sender has not sent any weather packets the latest 10 day(s).

<< 410 411 412 413 414 415 416 >>
Time Temp. Humidity Pressure Rain* Wind** Luminosity Snow
1787839811 28.33° C 84% 1009.7 hPa 0 mm 0.89 m/s, 230° 0 W/m² -
1787839745 28.33° C 84% 1009.7 hPa 0 mm 0.89 m/s, 231° 0 W/m² -
1787839685 28.33° C 84% 1009.7 hPa 0 mm 1.34 m/s, 35° 0 W/m² -
1787839623 28.33° C 84% 1009.7 hPa 0 mm 0.45 m/s, 240° 0 W/m² -
1787839562 28.33° C 84% 1009.6 hPa 0 mm 1.79 m/s, 242° 0 W/m² -
1787839501 28.33° C 84% 1009.6 hPa 0 mm 1.34 m/s, 317° 0 W/m² -
1787839440 28.33° C 84% 1009.7 hPa 0 mm 1.34 m/s, 230° 0 W/m² -
1787839379 28.33° C 84% 1009.5 hPa 0 mm 0.89 m/s, 220° 0 W/m² -
1787839318 28.33° C 84% 1009.6 hPa 0 mm 1.34 m/s, 232° 0 W/m² -
1787839257 28.33° C 84% 1009.7 hPa 0 mm 1.34 m/s, 169° 0 W/m² -
1787839196 28.33° C 84% 1009.7 hPa 0 mm 0.89 m/s, 193° 0 W/m² -
1787839135 28.33° C 84% 1009.6 hPa 0 mm 1.34 m/s, 284° 0 W/m² -
1787839074 28.33° C 84% 1009.5 hPa 0 mm 1.34 m/s, 211° 0 W/m² -
1787839013 28.33° C 84% 1009.5 hPa 0 mm 0 m/s 0 W/m² -
1787838952 28.33° C 84% 1009.8 hPa 0 mm 0.45 m/s, 232° 0 W/m² -
1787838891 28.33° C 84% 1009.6 hPa 0 mm 0.45 m/s, 210° 0 W/m² -
1787838830 28.33° C 84% 1009.4 hPa 0 mm 0.89 m/s, 213° 0 W/m² -
1787838769 28.33° C 84% 1009.5 hPa 0 mm 0.45 m/s, 234° 0 W/m² -
1787838708 28.33° C 84% 1009.4 hPa 0 mm 0.89 m/s, 229° 0 W/m² -
1787838648 28.33° C 84% 1009.5 hPa 0 mm 1.34 m/s, 221° 0 W/m² -
1787838586 28.33° C 84% 1009.6 hPa 0 mm 0.45 m/s, 255° 0 W/m² -
1787838525 28.33° C 84% 1009.7 hPa 0 mm 0.45 m/s, 221° 0 W/m² -
1787838464 28.33° C 84% 1009.5 hPa 0 mm 0 m/s 0 W/m² -
1787838403 28.33° C 84% 1009.5 hPa 0 mm 0.89 m/s, 271° 0 W/m² -
1787838342 28.33° C 84% 1009.5 hPa 0 mm 1.34 m/s, 263° 0 W/m² -

* Rain latest hour (hover to see other rain measurements)
** Current wind speed in m/s (hover to see current wind gust speed)